Location: Bailleul
(50.3375°N, 2.8513°E)
Time: 04:11:48
(UTC+00:00)

Cosmos 1980 - Pass Details

Date: 31 October 2021
Orbit: 839 x 847 km, 71.0° (Epoch: 01 December)

Event Time Altitude Azimuth Distance (km) Brightness Sun altitude
Exits shadow 03:27:52 22° 353° (N) 1,771 5.4 -30.5°
Maximum altitude 03:31:03 41° 50° (NE) 1,214 4.8 -30.0°
Drops below altitude 10° 03:36:23 10° 120° (ESE) 2,465 6.6 -29.2°
Sets 03:38:58 0° 128° (SE) 3,398 7.4 -28.8°
